Regional Weather Roundup
Issued by NWS

Home | Current Version | Previous Version | Text Only | Print | Product List | Glossary On
Versions: 1 2 3 4 5 6 7 8 9 10 11 12 13 14 15 16 17 18 19 20 21 22 23 24 25 26 27 28 29 30 31 32 33 34 35 36 37 38 39 40 41 42 43 44 45 46 47 48 49 50
000
ASUS44 KLUB 080010
RWRTX
WEST TEXAS WEATHER ROUNDUP
NATIONAL WEATHER SERVICE LUBBOCK TX
600 PM CST WED DEC 07 2016

NOTE: "FAIR" INDICATES FEW OR NO CLOUDS BELOW 12,000 FEET WITH NO
SIGNIFICANT WEATHER AND/OR OBSTRUCTIONS TO VISIBILITY.

TXZ004-006>008-010-012-014-016-OKZ002-080100-
TEXAS PANHANDLE/OKLAHOMA PANHANDLE

CITY           SKY/WX    TMP DP  RH WIND       PRES   REMARKS
AMARILLO       CLOUDY    29  20  69 N18       30.23R WCI  16
BORGER         CLOUDY    28  18  66 NE21G28   30.27R WCI  15
CANADIAN       CLOUDY    31  19  61 NE15G24   30.31R WCI  20
DALHART        CLOUDY    23  15  71 N22G29    30.26R WCI   8
DUMAS          CLOUDY    22  15  74 NE18G25   30.26R WCI   7
GUYMON         CLOUDY    23  16  74 NE13      30.33R WCI  11
HEREFORD       CLOUDY    30  21  69 NE14      30.21R WCI  20
PAMPA          CLOUDY    30  17  57 NE17      30.25R WCI  18
PERRYTON       CLOUDY    28  19  69 NE15      30.30R WCI  16
$$

TXZ026-029-035-045-048-080100-
SOUTHERN PANHANDLE/SOUTH PLAINS/ROLLING PLAINS

CITY           SKY/WX    TMP DP  RH WIND       PRES   REMARKS
CHILDRESS      CLOUDY    40  24  53 NE14G21   30.23R WCI  32
SEMINOLE       CLOUDY    42  36  79 NE9       30.13R
LUBBOCK        CLOUDY    35  27  72 NE18      30.17R WCI  24
PLAINVIEW      CLOUDY    32  25  74 NE15      30.17R WCI  22
SNYDER         CLOUDY    40  35  83 NE14      30.18R WCI  32
$$

TXZ052-054-060>062-072-078-127-140-154-169-080100-
PERMIAN BASIN/CONCHO VALLEY/BIG COUNTRY/EDWARDS PLATEAU

CITY           SKY/WX    TMP DP  RH WIND       PRES   REMARKS
ABILENE        CLOUDY    42  40  92 N10       30.17R
BIG SPRING     CLOUDY    42  39  88 N13       30.16R
BROWNWOOD      CLOUDY    46  45  93 N5        30.15R
JUNCTION       CLEAR     52  48  86 N6        30.06R
MIDLAND        CLOUDY    44  39  82 NE14      30.10R
ODESSA         CLOUDY    43  38  82 NE14      30.11R
SAN ANGELO     CLOUDY    49  43  80 NE9       30.09R
SONORA         CLEAR     48  45  87 N3        30.10R
SWEETWATER     CLOUDY    40  40 100 N8        30.19R WCI  35
WINK           CLOUDY    47  42  83 E9        30.05R
$$

TXZ055-058-074-075-080-082-080100-
FAR WEST/SOUTHWEST MOUNTAINS/TRANS PECOS

CITY           SKY/WX    TMP DP  RH WIND       PRES   REMARKS
ALPINE         CLOUDY    58  27  30 NW5       30.12R
DRYDEN           N/A     51  46  83 E6        30.03R
EL PASO        CLOUDY    55  32  41 SW6       30.03R
FORT STOCKTON  CLOUDY    50  45  83 NE8       30.05R
GUADALUPE PASS CLOUDY    49  31  49 W22       30.07R
MARFA          CLOUDY    52  29  41 N8        30.09R
PECOS          CLOUDY    46  40  82 NE5       30.06R
PRESIDIO       FAIR      68  38  33 W6        29.97R
$$

TXZ014-016-019-021>030-083-080100
TEXAS TECH WEST TEXAS MESONET/TEXAS PANHANDLE/NORTHERN SOUTH PLAINS

CITY           SKY/WX    TMP DP  RH WIND       PRES   REMARKS
ABERNATHY 5ENE   N/A     32  28  83 NE16      30.21R WCI  22
AMARILLO 9NNE    N/A     29  19  66 NE12      30.26R WCI  20
AMARILLO 7SSE    N/A     29  20  68 N14G20    30.25R WCI  18
AMHERST 1NE      N/A     32  23  69 NE14      30.19R WCI  22
BOOTLEG 11WNW    N/A     27  13  56 NE16      30.22R WCI  14
CANADIAN 6E      N/A     28  16  61 N23       30.29R WCI  14
CAPROCK CYN SP   N/A     35  27  75 N7        30.24R WCI  29
CHILDRESS 2NNE   N/A     38  23  55 N14       30.25R WCI  30
CLARENDON 2WSW   N/A     33  20  59 N15G21    30.25R WCI  23
CLAUDE 12SW      N/A     29  21  70 N14       30.24R WCI  19
DIMMITT 2NE      N/A     27  19  71 NE13      30.20R WCI  17
FLOYDADA 2NNE    N/A     32  27  79 N14       30.19R WCI  22
FRIONA 2NE       N/A     29  16  57 NE18G25   30.20R WCI  17
GOODLETT 3W      N/A     40  25  54 N17       30.24R WCI  31
HART 3N          N/A     29  21  73 N14       30.20R WCI  18
HEREFORD 2NW     N/A     28  18  64 NE17      30.22R WCI  16
MCLEAN 1E        N/A     31  14  49 N15G23    30.24R WCI  21
MEMPHIS 1NE      N/A     37  22  54 N15G22    30.25R WCI  28
MULESHOE 2SSW    N/A     33  18  54 NE15      30.20R WCI  23
OLTON 6S         N/A     32  24  72 N16       30.20R WCI  21
PALO DURO SP     N/A     30  20  66 NE13      30.25R WCI  20
PAMPA 2E         N/A     28  16  60 N15       30.26R WCI  16
PLAINVIEW 1S     N/A     33  27  78 NE15      30.20R WCI  22
SILVERTON 7ESE   N/A     32  25  74 N13       30.20R WCI  23
TULIA 2ENE       N/A     30  24  78 NE17      30.22R WCI  18
TURKEY 2WSW      N/A     35  29  76 N9        30.24R WCI  28
UMBARGER 3NNE    N/A     28  19  67 NE16      30.22R WCI  16
$$

TXZ033>036-039>041-045>048-080100
TEXAS TECH WEST TEXAS MESONET/SOUTH PLAINS

CITY           SKY/WX    TMP DP  RH WIND       PRES   REMARKS
AIKEN 3WSW       N/A     32  26  78 NE17      30.22R WCI  21
ANDREWS 2NE      N/A     41  37  86 E9        30.15R
ANTON 6SSW       N/A     35  28  78 NE14      30.19R WCI  25
BROWNFIELD 2S    N/A     38  33  80 NE13      30.17R WCI  30
DENVR CTY 7WNW   N/A     38  32  79 NE10      30.15R WCI  31
GAIL 2ESE        N/A     40  34  77 NE9G15    30.18R WCI  35
LAMESA 2SE       N/A     40  35  85 NE12      30.16R WCI  32
LEVELLAND 4S     N/A     36  28  74 NE18      30.17R WCI  25
LUBBOCK 3WNW     N/A     35  28  74 N14G20    30.20R WCI  26
MORTON 1ENE      N/A     36  24  64 NE15      30.17R WCI  26
ODONNELL 1N      N/A     39  33  78 NE14      30.17R WCI  31
PLAINS 3N        N/A     37  32  82 NE15      30.15R WCI  28
RALLS 1SE        N/A     33  28  80 NE15G21   30.20R WCI  23
REESE CENTER     N/A     34  28  76 NE17G23   30.19R WCI  24
SEAGRAVES 1SW    N/A     40  34  81 N10G16    30.15R WCI  33
SEMINOLE 2NNE    N/A     42  35  77 NE16      30.14R
SLATON 2NE       N/A     35  29  79 N15       30.19R WCI  25
SNYDER 3E        N/A     39  36  87 N14       30.17R WCI  31
SUNDOWN 8SW      N/A     36  30  79 NE13      30.15R WCI  28
TAHOKA 3NNE      N/A     38  30  73 NE15      30.18R WCI  29
WOLFFORTH 6SSW   N/A     37  30  74 NE13      30.18R WCI  29
$$

TXZ031-032-036>038-042>044-080100-
TEXAS TECH WEST TEXAS MESONET/ROLLING PLAINS

CITY           SKY/WX    TMP DP  RH WIND       PRES   REMARKS
ASPERMONT 3NE    N/A     41  32  70 N10       30.22R
FLUVANNA 3WNW    N/A     38  31  77 NE10      30.18R WCI  31
GRAHAM 5SSW      N/A     37  30  74 NE16      30.18R WCI  28
GUTHRIE 10WSW    N/A     39  28  65 N10G16    30.21R WCI  32
HASKELL 1NW      N/A     43  34  72 N15       30.20R
JAYTON 1SSE      N/A     39  30  70 N8        30.20R WCI  34
KNOX CITY 3NW    N/A     42  31  64 N12       30.23R
LK A HENRY 1NW   N/A     40  29  66 NE13      30.19R WCI  32
NORTHFIELD 1S    N/A     38  28  67 N9        30.24R WCI  31
ODELL 4ENE       N/A     39  27  60 N14       30.27R WCI  31
PADUCAH 10SW     N/A     38  29  69 N13       30.23R WCI  31
POST 1NE         N/A     38  29  69 N16G22    30.18R WCI  30
RRING SPRGS 3N   N/A     35  28  75 N12       30.21R WCI  27
SEYMOUR 3NW      N/A     43  31  62 N10       30.22R
SPUR 1W          N/A     38  28  68 NE15      30.20R WCI  29
WEINERT 2NNE     N/A     42  32  67 N14       30.22R
WHITE RVR 6NE    N/A     36  27  70 N14       30.19R WCI  27
$$

TXZ052-054-060>062-072-078-127-140-154-169-080100-
TEXAS TECH WEST TEXAS MESONET/PERMIAN BASIN/
CONCHO VALLEY/BIG COUNTRY/EDWARDS PLATEAU

CITY           SKY/WX    TMP DP  RH WIND       PRES   REMARKS
COYANOSA 2N      N/A     48  43  81 N9        30.08R
JUNCTION 1SSW    N/A     51  47  87 N5        30.08R
MERTZON 3NNE     N/A     49  43  81 NE8       30.11R
SAN ANGELO 7NW   N/A     48  42  78 NE8       30.12R
STRLNG CT 4WSW   N/A     45  40  84 N7        30.14R
ST LAWRNCE 5SW   N/A     46  42  86 N16       30.10R
SWEETWATR 11SW   N/A     39  38  99 N12       30.18R WCI  32
WALL 1E          N/A     47  42  82 N8        30.13R
$$

TXZ055-058-074-075-080-082-080100-
TEXAS TECH WEST TEXAS MESONET/FAR WEST/SOUTHWEST MOUNTAINS/TRANS PECOS

CITY           SKY/WX    TMP DP  RH WIND       PRES   REMARKS
PRSMN GAP BBNP   N/A     64  41  43 N12       30.00R
GUADLPE MTN NP   N/A     51  17  26 W14       30.08R
$$



USA.gov is the U.S. government's official web portal to all federal, state and local government web resources and services.